Wind_Gust
5 5 5 5 3 3 5 10 5 10 5 7 7 4 10 2 5 7 7 5 2 2 3 5 9 10 9 11 10 5 3 18 6 25 18 8 3 16 13 13 13 14 12 10 8 8 11 11 13 14 15 17 15 15 15 18 18 18 16 15 16 16 16 17 17 17 16 16 17 16 17 17 17 17 14 14 14 13 14 16 16 17 18 18 19 19 19 19 19 19 19 19 19 19 19 19 21
5 5 3 2 3 3 5 6 8 3 10 5 12 3 8 5 1 7 5 2 3 7 5 12 14 14 13 17 10 7 8 9 3 3 5 3 11 15 9 12 14 16 12 10 9 8 9 13 11 13 15 17 16 15 16 18 18 17 17 16 16 16 17 18 17 17 16 16 16 16 16 16 17 17 16 14 12 11 10 12 15 16 17 17 18 18 20 20 19 20 19 19 19 19 19 20 21
2 5 2 6 5 6 6 7 10 3 4 4 11 13 7 6 6 7 9 3 7 12 7 6 7 7 5 5 9 5 4 5 6 4 11 9 20 7 11 11 13 13 11 8 10 8 7 10 12 12 14 16 15 14 15 16 17 18 18 17 16 17 17 17 18 17 16 16 16 17 16 15 15 16 16 14 13 12 11 11 13 14 15 17 17 18 19 20 19 20 20 19 19 20 20 20 20
1 1 3 5 7 9 4 7 6 13 5 10 6 5 4 3 6 10 9 6 10 3 8 8 11 5 6 13 7 3 7 5 5 11 21 16 9 13 14 14 14 13 12 9 9 9 7 11 12 11 12 14 15 16 15 15 15 17 18 16 16 17 17 17 18 17 17 17 17 16 15 15 14 14 16 16 13 10 9 10 12 14 14 14 15 16 18 19 19 20 20 20 21 21 20 20 19
1 3 3 7 10 5 6 6 6 7 6 12 3 8 3 2 3 9 9 4 2 4 5 9 15 7 4 11 4 8 5 5 6 3 18 7 12 13 14 16 17 16 12 9 9 8 5 12 12 10 11 14 15 16 16 14 13 14 17 16 16 16 17 17 17 17 17 17 16 16 16 15 15 14 15 17 16 15 12 9 9 10 11 11 12 14 15 16 19 20 20 21 22 22 20 19 18
3 3 4 4 6 7 12 5 4 5 12 8 3 3 2 3 5 4 3 2 4 3 3 4 11 9 9 6 4 10 6 9 8 7 12 10 16 16 14 16 17 15 12 8 8 7 4 10 9 9 10 13 14 16 16 16 14 13 15 16 15 16 17 17 16 16 16 16 16 16 16 15 15 15 15 16 19 20 17 13 12 12 13 11 11 13 14 15 17 18 19 21 22 21 19 17 16
4 7 10 7 5 11 10 6 5 6 12 11 7 4 2 4 5 4 4 5 6 5 7 5 11 11 14 7 8 8 3 6 10 8 5 14 15 14 14 14 15 14 12 10 8 8 7 10 7 8 10 13 14 15 16 16 15 14 15 15 15 15 16 16 14 14 16 15 15 16 16 15 16 15 15 17 18 19 19 17 16 14 13 11 10 13 14 16 17 18 20 21 20 20 18 15 13
4 5 5 6 7 5 5 3 5 10 7 11 5 3 3 4 3 5 3 4 5 6 6 7 5 12 4 4 9 6 9 4 8 11 16 14 14 13 13 13 15 14 13 11 9 5 11 10 9 8 11 11 14 15 16 17 16 14 14 14 14 14 14 14 14 13 13 13 15 15 16 15 16 16 15 15 17 17 17 18 17 16 14 12 10 12 13 15 18 18 20 20 20 19 16 14 12
6 10 2 9 5 7 4 7 9 5 12 7 14 8 9 7 4 5 5 4 1 2 7 8 5 14 10 6 6 5 6 6 11 15 14 15 14 13 13 12 16 14 13 12 9 9 7 10 9 9 11 12 12 17 16 17 15 14 14 14 13 12 12 12 13 13 13 13 13 15 16 15 15 14 14 15 15 15 16 17 17 16 14 13 10 12 13 15 17 18 18 18 20 18 16 13 12
4 5 5 9 7 5 5 13 3 8 8 9 11 10 7 9 8 7 7 4 6 7 7 5 4 7 10 12 7 2 6 10 14 13 12 12 12 11 12 12 13 15 13 12 10 9 5 13 9 9 9 11 11 13 14 15 14 14 13 13 12 12 12 12 12 13 12 12 12 13 14 14 13 13 14 15 16 15 16 16 16 16 15 14 11 12 13 14 15 16 16 17 19 19 16 14 12
5 11 6 8 3 6 9 11 7 9 5 10 14 13 16 9 8 9 9 4 8 14 3 5 9 14 9 5 5 5 10 15 19 18 13 11 11 12 12 12 12 12 13 12 10 7 8 6 15 10 9 9 10 12 13 13 14 13 13 12 12 12 12 12 12 12 12 12 12 12 13 13 13 12 12 14 15 14 14 15 15 15 16 15 13 10 12 13 14 13 14 13 14 17 16 14 13
4 3 6 6 7 10 8 7 6 12 9 4 10 8 3 8 7 6 6 8 10 10 11 5 19 12 10 7 6 10 15 15 14 15 14 12 12 11 12 11 12 12 12 11 10 9 9 7 5 13 11 10 10 11 11 13 12 13 13 12 12 12 12 12 11 12 12 11 11 12 12 12 13 12 11 12 12 12 14 15 15 15 15 16 14 12 11 13 14 13 12 12 11 14 16 15 13
8 4 7 7 7 3 3 2 9 4 9 9 7 7 2 5 11 14 12 15 13 12 8 9 15 5 9 5 6 10 14 14 13 16 16 15 14 13 13 14 13 12 13 11 12 11 8 6 7 6 10 14 11 10 10 11 11 13 13 12 11 10 10 10 11 11 11 11 11 11 12 12 12 12 13 12 12 12 14 14 14 15 16 17 15 13 10 12 14 15 13 12 11 10 15 15 13
9 12 10 9 3 3 3 5 2 4 10 10 5 5 4 5 10 13 14 13 10 17 7 14 13 10 10 11 7 13 13 13 17 13 16 15 13 14 14 15 13 15 13 11 11 10 8 6 7 5 7 7 9 11 10 10 11 12 12 11 11 9 8 10 12 10 11 11 10 11 12 13 13 14 13 11 12 12 12 12 13 15 16 17 16 13 10 10 12 14 13 12 11 10 12 15 13
2 5 8 5 4 2 6 6 2 1 12 4 9 5 8 9 2 7 21 16 7 4 11 10 14 5 17 17 15 19 18 17 13 13 13 13 15 14 16 15 13 13 12 10 9 9 7 7 8 7 6 7 7 7 6 10 12 13 13 11 12 10 9 10 12 10 12 12 13 12 12 14 14 14 14 13 11 11 11 12 12 14 15 16 15 13 10 8 10 13 14 12 10 10 9 15 13
7 9 6 4 5 3 9 4 2 1 16 3 11 8 4 5 3 12 6 9 16 5 9 16 4 6 5 14 6 20 18 15 12 13 14 14 13 13 16 14 14 14 11 11 8 8 8 8 7 8 9 8 7 7 7 6 11 11 12 12 12 10 9 10 12 12 11 12 13 11 11 11 12 12 15 13 14 11 10 8 10 12 14 15 14 13 11 8 7 11 13 13 11 8 7 11 13
3 9 4 6 5 4 8 6 5 7 13 11 10 10 2 4 3 5 2 8 27 9 7 5 5 3 14 8 15 19 15 14 12 14 13 12 12 14 13 12 13 12 10 9 10 8 9 8 7 6 9 11 7 6 6 7 7 11 9 11 12 10 6 10 13 14 10 11 11 9 9 8 6 7 10 7 12 8 9 9 12 13 14 14 14 14 12 9 7 7 10 13 12 8 6 6 15
3 4 8 3 8 4 9 9 11 3 7 13 16 8 4 4 6 8 15 13 11 7 9 4 10 11 10 8 19 20 16 15 14 14 14 12 11 12 14 14 16 17 10 10 6 6 6 6 6 6 7 7 7 6 5 5 5 7 4 5 10 13 10 9 7 4 8 7 11 10 7 8 7 6 7 10 7 10 11 11 12 14 14 15 14 14 13 11 8 6 8 9 10 8 9 8 8
6 5 5 11 8 13 9 8 8 4 10 10 9 9 2 3 2 8 16 7 8 13 6 5 13 12 16 16 19 20 16 13 14 12 12 11 11 12 12 14 15 14 12 9 7 5 4 5 4 6 6 6 7 6 5 7 6 6 5 5 7 12 10 9 6 7 6 5 6 7 6 7 7 6 6 8 8 12 11 11 11 14 13 15 14 12 12 11 9 6 5 8 8 9 9 7 5
6 7 7 13 9 7 8 6 8 7 6 15 11 10 8 2 4 4 11 9 6 15 18 4 11 14 16 15 18 18 17 15 14 14 15 12 10 10 10 10 9 13 12 10 9 4 5 5 4 4 6 7 7 6 6 6 5 6 6 4 6 5 8 9 8 9 4 2 6 5 6 5 6 6 10 14 14 9 8 9 13 13 14 13 13 10 11 9 9 8 6 9 8 6 6 7 6
6 5 11 11 7 5 9 8 11 10 6 9 8 6 4 2 2 7 13 15 4 5 10 23 21 22 20 19 18 18 17 16 15 15 15 13 11 8 9 10 11 11 9 7 6 6 5 4 5 5 6 6 7 6 6 6 5 5 5 5 5 6 6 7 10 8 8 6 6 5 4 5 7 5 5 4 6 5 4 7 5 5 6 6 8 4 5 6 7 5 2 8 7 7 5 6 6
7 10 7 9 2 5 13 6 6 6 6 6 6 1 3 1 4 10 21 17 17 22 21 7 23 26 27 23 20 17 18 17 16 15 17 17 16 13 8 6 3 5 8 9 8 4 4 4 4 5 6 5 5 6 8 7 7 4 5 5 5 5 6 7 6 8 9 4 6 5 6 6 5 6 3 3 6 7 7 5 5 7 5 5 5 6 5 3 4 5 6 7 7 6 6 5 5
9 9 5 10 9 9 9 4 6 2 7 6 6 5 6 3 4 7 4 11 8 6 3 14 22 29 29 27 25 19 17 18 16 16 15 14 12 11 11 8 10 11 8 7 5 4 3 3 3 4 7 7 6 7 8 5 6 3 3 5 6 4 5 6 6 9 5 4 5 6 5 8 6 4 6 5 6 7 8 8 7 6 8 7 6 8 6 6 5 6 7 6 6 6 6 6 6
4 13 2 9 6 11 12 10 6 5 2 12 7 6 5 7 5 8 7 6 7 5 9 10 7 13 22 25 21 25 22 18 16 12 11 15 14 14 12 11 6 4 6 5 4 5 5 5 4 4 4 5 4 6 6 6 6 6 5 6 6 7 7 6 6 9 14 9 7 8 5 6 7 8 7 8 7 6 7 9 7 7 7 7 8 8 9 6 5 4 6 5 7 6 6 5 5
6 10 5 8 3 10 9 10 11 6 9 10 6 8 6 10 10 7 10 6 5 6 14 14 16 14 12 16 18 15 15 12 12 8 5 4 5 6 5 5 5 7 8 5 5 6 4 5 4 5 4 5 5 6 6 6 6 5 4 5 6 8 6 5 6 7 10 8 7 8 9 9 8 8 9 9 7 9 8 9 10 10 10 9 8 7 9 8 6 5 5 6 5 3 3 4 5
9 12 4 7 11 9 10 11 13 4 7 5 2 6 5 4 3 11 6 5 4 12 16 16 17 17 17 16 16 17 15 14 11 10 10 6 7 9 5 7 8 9 9 7 7 6 4 4 6 7 6 8 7 6 6 7 6 6 4 4 2 6 4 6 6 7 7 8 8 8 9 10 11 11 10 8 10 9 9 7 10 13 11 9 9 9 7 7 6 5 3 5 4 3 3 4 4
5 4 6 10 15 8 8 7 9 2 8 4 9 2 5 3 6 10 2 4 10 16 16 14 19 19 16 14 11 8 14 15 15 12 10 7 7 11 9 9 9 9 9 8 7 8 6 6 6 6 6 8 6 7 5 6 5 5 6 9 4 5 4 5 6 7 6 6 7 8 9 10 10 11 10 10 8 8 8 9 13 13 13 13 10 9 7 7 6 6 7 7 6 5 6 3 4
4 7 7 10 10 8 8 5 9 2 5 7 8 5 3 5 4 9 5 8 12 19 16 16 14 16 16 12 12 7 10 9 9 12 17 15 17 16 13 15 11 11 12 11 9 6 7 7 8 5 7 8 8 7 6 6 6 6 7 5 3 4 7 4 4 4 7 5 5 7 8 11 9 10 10 10 8 9 14 17 14 12 13 7 8 7 7 6 7 7 6 4 3 3 4 4 4
5 1 7 11 11 7 5 6 3 3 5 7 5 4 5 4 5 5 4 7 10 18 17 16 15 12 11 12 10 10 12 10 8 11 12 12 12 13 16 11 18 15 6 12 11 9 9 8 10 7 8 7 9 8 8 6 6 6 6 6 6 6 5 5 3 2 2 3 3 4 6 11 10 11 11 10 11 10 10 8 9 8 7 5 5 4 5 6 6 6 7 4 3 4 4 6 3
4 4 3 9 10 8 7 5 6 2 5 5 3 10 12 13 8 6 2 10 10 13 12 13 12 12 13 12 13 10 7 8 11 12 12 12 12 13 17 11 12 16 14 8 8 11 8 7 9 9 9 10 9 8 7 7 5 5 5 4 4 5 3 5 5 2 3 4 4 3 3 5 7 7 8 7 7 11 11 8 6 6 9 8 11 7 6 7 8 8 8 7 6 5 5 5 4
7 7 10 3 4 5 10 4 8 2 5 6 3 7 13 12 8 5 2 9 18 15 12 12 11 12 15 13 13 11 8 8 10 9 9 9 10 9 13 12 9 10 13 10 13 12 9 10 10 11 10 9 8 7 7 6 4 5 6 3 4 5 3 4 4 3 2 6 9 6 4 7 9 6 8 6 10 9 8 8 10 13 15 12 11 15 8 7 7 8 7 8 7 6 4 4 4
6 6 6 10 4 8 14 5 4 7 7 8 6 5 14 11 8 4 4 8 8 15 13 12 11 13 15 13 10 9 9 6 7 7 9 11 11 13 15 16 11 11 16 14 11 11 12 9 8 10 7 9 7 7 5 5 4 3 4 6 6 4 5 4 2 2 5 7 9 4 5 8 7 5 8 8 6 5 14 14 13 15 13 12 14 16 11 6 7 7 7 7 8 6 5 5 4
10 5 4 2 3 4 6 4 6 4 5 4 3 14 8 10 6 7 6 12 9 12 11 13 13 14 15 13 10 8 9 7 8 10 11 12 12 12 14 15 17 15 14 14 15 11 11 8 10 12 10 9 7 6 6 5 5 4 3 4 4 4 6 5 2 2 4 6 5 6 9 10 8 5 6 5 5 9 14 11 12 9 7 8 9 6 8 9 8 9 6 6 6 9 7 5 3
7 5 4 2 2 3 4 13 3 5 2 5 2 7 11 8 9 4 3 6 8 9 12 10 9 10 11 10 9 11 12 13 19 18 17 13 13 11 11 13 14 11 10 13 14 18 16 11 11 11 10 8 9 8 6 6 6 5 5 4 5 6 4 4 3 4 5 5 6 5 3 2 4 5 5 8 9 12 10 10 7 6 5 3 5 7 10 9 10 13 9 6 8 7 5 5 5
3 3 5 5 2 2 3 5 5 8 5 6 3 4 15 11 8 7 4 2 8 12 15 14 13 11 11 12 12 11 13 17 22 20 14 12 9 9 8 8 8 8 9 9 8 6 10 10 9 10 12 9 9 9 7 7 7 7 6 6 8 6 6 6 5 6 4 6 6 4 5 7 7 8 8 8 8 7 6 5 6 6 5 5 8 9 4 6 6 7 5 8 6 8 8 9 6
5 9 4 4 4 2 7 7 6 3 3 1 3 12 11 9 7 7 4 2 9 14 5 3 3 4 4 7 10 12 14 20 15 7 7 8 8 10 8 6 6 7 8 9 8 8 8 8 9 9 10 11 9 9 9 8 8 8 9 6 9 6 4 6 6 4 4 8 6 5 5 6 6 6 7 7 8 7 6 6 5 5 4 4 4 6 6 10 10 11 7 7 7 5 5 6 6
6 7 7 3 2 7 7 6 7 2 3 2 2 6 7 9 8 8 5 4 4 7 8 8 7 8 10 10 13 13 15 17 5 7 8 10 9 7 6 6 7 5 6 8 10 9 11 14 14 13 10 12 14 12 9 10 8 6 4 5 7 2 4 4 6 4 7 5 5 6 7 7 6 7 7 7 8 8 7 6 3 4 6 8 9 8 11 10 9 10 6 4 5 6 6 6 6
5 7 3 1 3 2 3 4 4 8 4 2 2 1 7 11 9 10 6 10 9 13 13 11 11 11 11 13 13 14 11 3 6 6 8 7 6 6 6 8 8 14 9 8 12 14 11 9 13 14 11 11 13 13 11 9 6 9 9 7 5 3 5 6 4 4 4 6 7 6 6 6 7 7 6 7 7 8 9 8 6 5 5 6 7 7 6 5 6 6 6 5 4 5 5 9 9
3 4 4 3 7 8 13 4 5 5 1 8 4 4 8 9 9 11 6 11 7 13 17 16 18 14 15 15 13 10 9 11 7 9 7 10 9 8 8 8 8 7 12 13 12 10 10 12 11 12 12 13 11 10 11 8 4 3 6 7 8 6 2 2 4 3 3 7 6 6 6 5 6 6 5 6 8 8 9 9 8 8 8 7 9 10 6 8 8 9 7 7 6 6 7 8 6
6 4 2 7 6 4 11 8 6 8 7 5 1 2 13 13 9 11 10 4 6 6 7 8 11 19 18 20 19 19 16 13 15 19 22 13 11 10 8 10 10 8 9 9 9 13 13 13 11 12 12 10 11 8 9 6 9 5 7 8 4 5 5 5 6 5 6 6 6 5 7 5 6 6 5 6 7 8 8 9 8 10 10 9 12 12 10 11 8 7 6 5 7 8 5 4 2
3 1 3 3 2 4 9 8 8 5 2 4 4 9 14 8 8 12 5 5 5 3 3 5 6 9 11 7 6 15 20 20 20 15 10 13 14 19 19 11 11 13 14 15 15 16 14 14 14 14 13 12 10 8 9 10 12 9 8 7 6 8 7 6 6 5 5 2 3 6 5 5 5 6 5 5 7 8 7 8 10 8 10 9 10 11 11 10 10 10 11 11 9 5 7 5 4
8 8 8 7 3 2 3 4 8 16 10 7 4 11 13 10 11 12 14 12 10 6 9 5 8 9 6 9 17 13 14 14 19 22 26 27 25 12 8 13 15 14 18 17 11 10 10 12 10 10 10 9 10 7 9 11 11 13 10 9 7 5 6 6 7 9 4 4 5 1 3 5 5 5 5 5 5 6 9 9 9 10 10 11 11 10 8 11 13 13 11 9 11 9 8 9 8
3 12 9 6 5 4 2 1 3 4 7 7 3 9 17 12 7 7 7 8 11 12 4 13 7 10 10 17 16 16 18 17 14 13 10 10 11 12 14 17 21 20 16 8 10 11 10 12 12 13 13 11 10 8 8 10 10 11 13 13 12 13 13 8 3 4 9 4 2 3 3 5 4 6 5 5 6 7 9 10 10 10 10 10 8 11 12 11 10 10 10 12 10 8 7 12 8
9 5 9 9 8 3 4 5 7 8 4 6 8 8 9 12 12 8 8 8 12 13 14 12 12 8 12 12 14 16 21 22 24 23 22 22 21 23 25 27 23 23 14 11 11 12 13 14 14 14 12 12 10 9 9 11 13 10 10 8 9 10 12 12 8 7 4 7 6 4 4 3 5 5 6 6 6 7 9 10 10 11 12 10 11 12 10 7 9 10 11 10 11 11 9 10 9
11 4 10 8 5 6 6 6 5 3 1 12 10 4 7 10 15 7 6 7 10 11 13 13 14 15 6 9 14 16 21 24 23 22 22 23 23 24 24 23 19 11 16 20 20 16 12 12 13 10 11 11 10 10 11 9 11 13 13 12 8 7 7 6 5 5 8 5 7 3 4 3 5 5 4 6 6 7 9 10 10 11 11 10 10 10 9 10 11 11 12 13 12 12 11 8 9
6 8 9 10 10 10 6 7 7 3 5 9 6 3 10 14 12 14 5 3 8 13 13 13 12 12 16 18 13 18 17 16 19 24 26 25 26 27 26 17 11 14 11 8 7 8 10 10 11 11 13 13 11 11 11 10 9 11 11 10 11 8 4 3 4 7 6 5 7 4 3 5 5 7 6 5 7 7 9 10 10 10 10 9 10 10 9 11 10 11 11 10 10 11 10 11 11
6 6 9 8 13 6 7 11 8 9 4 13 10 3 6 11 10 10 2 5 7 9 12 11 13 10 14 14 14 15 16 18 21 23 22 24 22 13 7 13 12 9 11 11 11 12 12 14 14 16 17 13 11 12 11 13 10 10 13 12 11 11 7 8 7 4 5 5 8 5 5 5 5 7 6 5 6 7 8 8 10 8 8 9 10 10 10 10 9 10 9 10 11 10 9 9 10
4 4 4 6 3 12 6 9 9 7 11 12 5 6 4 7 11 9 12 9 5 8 11 14 15 16 15 10 10 11 13 15 16 18 20 13 9 11 13 12 15 13 12 15 14 13 15 16 15 16 13 12 12 12 11 13 13 12 9 12 12 12 13 12 12 11 10 9 8 9 4 5 5 6 6 7 5 6 9 8 7 8 10 10 11 10 9 9 8 9 10 10 9 8 8 9 8
9 7 11 5 9 11 8 7 9 10 14 3 4 3 3 9 13 5 13 10 8 4 7 9 9 12 11 11 10 7 9 9 14 15 8 9 17 16 18 15 12 15 21 20 21 20 18 15 16 18 17 14 15 13 13 12 12 13 13 12 10 11 13 13 13 12 10 11 10 8 7 7 5 8 6 9 5 6 9 9 8 9 9 8 9 9 8 8 9 10 10 10 9 9 9 9 10
8 7 8 8 6 6 7 10 7 10 11 6 2 3 7 10 9 3 7 10 6 6 5 5 8 10 14 13 11 10 6 8 9 10 11 13 13 16 17 19 21 21 19 21 19 20 19 18 16 18 19 15 13 12 13 13 14 15 13 12 12 12 12 12 12 14 12 11 11 12 11 12 11 10 9 9 9 7 5 7 8 8 9 8 9 9 9 8 9 10 9 9 8 6 8 8 8
14 8 15 14 16 17 10 11 12 12 10 4 3 4 13 4 5 8 7 8 6 6 6 6 9 10 12 15 17 14 11 6 3 8 8 10 10 9 8 10 17 20 20 19 18 20 17 18 18 18 16 14 14 16 14 15 15 13 12 11 11 11 13 12 12 11 13 11 9 10 9 8 11 10 11 7 8 7 7 8 7 9 8 8 8 9 9 9 9 10 9 8 7 7 8 8 7
3 7 11 10 14 13 13 12 8 6 5 4 6 11 8 7 4 7 6 6 5 4 5 3 9 9 17 23 20 17 12 10 8 5 7 6 6 5 6 6 6 4 6 11 17 17 19 21 20 20 22 19 17 15 15 17 16 13 10 12 13 12 11 10 9 7 9 11 13 13 12 11 11 10 7 8 6 9 9 8 7 9 8 8 9 10 9 10 9 10 8 9 8 6 8 8 7
9 9 10 10 7 16 12 4 4 5 10 14 6 13 5 14 5 2 6 5 6 6 8 12 10 10 18 17 13 13 15 15 12 9 6 3 5 6 8 9 7 6 6 9 8 6 7 9 14 18 16 13 16 17 18 15 13 11 13 13 12 11 12 14 16 13 12 10 10 11 12 12 8 10 12 9 10 7 8 10 9 8 7 8 9 9 9 9 9 8 8 8 8 6 7 7 6
16 7 12 6 4 10 12 11 8 6 9 18 4 10 5 6 12 6 5 7 3 5 5 5 8 10 18 10 11 11 12 11 11 13 9 5 2 5 6 8 10 10 10 9 7 6 7 9 8 9 10 15 16 16 16 15 16 15 14 15 14 15 16 14 13 13 11 11 8 8 6 8 10 11 12 11 12 11 9 10 11 8 7 8 9 8 8 8 9 9 8 9 7 5 6 6 6
8 9 7 8 11 5 8 11 7 7 10 12 7 3 7 9 10 4 5 6 2 3 4 8 11 11 9 9 9 9 8 10 15 15 16 16 12 5 4 6 6 9 10 11 11 11 9 8 9 10 14 12 9 12 13 13 13 15 15 17 17 16 13 12 11 10 11 12 13 11 11 11 8 9 10 10 10 11 11 10 11 9 8 9 8 8 8 9 8 10 7 8 6 7 8 7 7
3 4 7 2 11 6 8 14 9 11 7 4 11 3 12 13 11 15 9 3 1 4 7 7 6 7 8 8 9 10 11 11 12 13 13 13 13 13 10 4 7 8 9 10 12 13 14 13 12 10 8 11 10 10 12 13 9 9 10 6 8 11 12 12 12 12 13 13 12 12 11 8 11 10 10 11 11 11 11 11 10 11 10 9 10 8 9 9 10 9 7 8 6 7 7 5 5
3 8 6 6 8 4 10 5 6 9 14 9 9 11 12 10 9 4 7 6 4 2 4 4 7 8 8 8 10 10 9 10 10 10 11 11 12 15 16 15 9 4 3 6 9 12 12 12 13 14 16 15 13 14 12 12 13 16 14 16 14 12 12 11 10 12 14 13 11 11 12 12 9 10 9 10 10 10 10 10 10 10 10 10 10 9 7 9 10 8 7 7 6 6 5 4 3
5 7 7 12 8 5 3 13 5 6 11 14 11 17 14 15 6 5 5 5 4 2 2 4 6 7 7 8 8 7 10 9 7 8 8 10 10 10 13 17 16 15 12 8 5 2 8 13 14 14 15 15 16 18 18 16 16 18 24 21 16 11 12 10 11 12 12 12 12 13 12 11 13 11 12 12 11 9 9 10 9 8 8 9 9 9 7 10 9 8 5 4 5 4 4 4 3
Wind_Speed
3 3 3 2 0 1 1 4 1 2 1 3 3 0 2 1 2 4 4 2 1 1 0 3 5 4 2 3 6 4 1 9 2 8 7 1 1 9 8 9 9 9 8 6 5 5 7 9 11 11 13 14 12 12 13 14 14 14 13 13 14 13 13 14 14 13 13 14 14 13 13 14 14 13 12 12 11 11 11 12 13 13 14 14 14 14 15 15 15 15 15 14 15 14 14 14 15
2 2 2 0 1 2 1 1 3 1 4 2 6 1 3 2 1 4 3 0 0 2 3 6 7 9 8 12 6 5 4 6 2 1 2 1 7 6 6 9 9 11 7 6 5 5 6 8 9 11 12 14 13 12 13 15 14 14 13 13 13 13 14 14 14 14 13 13 13 13 13 13 13 13 13 12 10 9 9 9 12 13 14 13 13 14 15 15 15 16 15 15 15 15 14 15 15
0 3 1 1 2 2 2 3 3 1 2 1 4 6 3 4 3 4 6 2 4 7 5 4 5 3 2 2 5 2 1 2 4 2 4 5 10 4 8 8 9 9 8 5 5 5 4 7 10 10 12 13 13 12 12 13 14 15 14 13 13 13 14 14 14 13 13 13 13 13 13 13 12 13 12 11 10 9 9 9 10 10 10 13 13 14 15 15 15 15 15 14 15 15 15 14 14
1 0 1 3 2 3 1 3 3 7 2 4 3 2 2 1 4 7 6 3 5 1 0 3 5 2 3 6 2 2 4 2 2 5 5 4 1 7 8 9 9 7 6 5 5 4 4 8 10 9 10 12 12 13 12 12 13 14 14 13 13 14 14 14 14 14 13 13 13 13 12 12 12 12 13 13 10 8 6 8 10 12 11 10 12 13 14 15 15 15 15 15 16 16 15 15 14
1 1 1 3 3 0 1 1 2 3 2 5 1 3 2 0 1 3 4 2 2 3 2 2 4 4 1 5 1 1 2 2 4 1 4 3 7 8 9 10 10 9 7 6 5 5 3 10 9 8 9 12 12 13 12 11 11 12 14 13 13 13 14 14 14 14 14 13 13 12 13 12 12 11 12 13 11 12 8 7 8 8 9 9 10 11 12 13 14 15 15 16 16 16 15 15 14
1 1 2 2 1 1 4 1 0 2 6 3 1 0 1 0 3 1 1 1 3 2 2 2 4 4 3 2 1 4 3 3 3 3 4 5 8 10 9 10 9 8 7 4 5 4 2 8 8 8 8 11 12 13 13 12 11 11 12 13 12 13 14 14 13 13 13 13 12 13 12 12 12 11 12 12 11 12 11 11 10 10 10 8 10 10 12 12 13 13 15 16 16 16 15 14 12
0 2 4 3 2 4 4 2 3 3 6 7 1 2 0 2 2 1 3 3 3 3 4 1 5 6 5 0 2 2 2 2 3 2 2 8 10 9 9 8 9 9 7 5 5 5 5 8 6 7 8 9 12 13 13 13 12 11 12 12 12 12 13 13 12 12 13 12 12 13 12 12 13 11 11 13 13 13 12 13 13 11 10 8 9 10 11 13 13 13 15 16 15 16 14 12 10
1 2 1 1 1 2 0 1 2 5 2 6 2 1 0 3 3 0 1 2 3 2 3 1 2 5 1 2 3 2 6 3 5 7 10 8 9 8 9 8 10 9 8 6 6 3 8 8 7 7 9 8 11 13 12 13 13 11 12 11 11 11 12 11 12 11 11 11 12 12 12 12 13 12 11 12 14 14 13 13 14 13 11 8 9 10 10 13 14 14 15 16 16 15 13 11 9
3 4 0 4 0 2 1 3 3 2 6 4 4 6 6 5 3 2 2 1 0 1 1 1 3 6 2 4 2 3 2 3 8 10 10 9 8 8 6 7 10 8 8 7 6 6 4 8 8 7 9 9 10 14 12 11 10 11 11 11 11 10 10 10 11 11 10 11 11 12 13 12 12 12 11 11 12 12 13 13 13 13 11 8 8 10 10 12 14 15 14 14 15 14 12 10 9
2 1 1 2 3 3 2 6 1 2 3 6 5 5 4 4 4 4 3 1 3 4 3 3 3 3 4 7 2 1 1 6 9 9 8 8 8 7 7 7 9 10 8 7 6 5 3 10 8 8 7 9 9 12 12 13 11 11 11 11 10 10 10 10 10 11 10 10 10 11 11 11 10 10 11 12 12 12 12 12 12 12 12 9 8 10 11 11 12 13 13 13 14 15 12 11 9
0 4 2 3 1 2 4 6 2 5 2 5 8 7 11 4 3 3 6 2 4 7 1 3 4 6 4 1 0 3 6 9 11 11 8 7 8 8 7 7 7 8 8 8 7 4 5 4 12 9 8 8 8 10 10 10 11 11 11 10 10 10 10 10 10 10 10 10 10 10 11 11 11 10 9 10 11 12 11 12 11 12 11 10 8 8 10 11 11 11 12 11 11 12 13 11 10
1 0 1 2 2 4 4 2 3 6 6 2 4 4 2 5 4 2 3 4 4 6 6 3 4 3 5 1 0 5 10 10 9 10 9 8 7 7 7 6 7 8 8 8 7 6 6 4 4 9 9 8 9 10 10 11 10 10 10 10 10 10 10 10 9 9 10 9 9 9 10 10 10 10 9 9 9 10 11 12 12 12 12 11 8 7 9 10 11 11 10 10 9 10 12 12 10
2 1 4 3 2 1 1 0 3 2 4 4 4 2 0 3 6 10 7 9 8 8 2 6 6 2 3 1 1 6 9 9 8 10 10 8 8 7 7 7 7 8 8 7 8 7 6 4 4 3 7 11 9 8 9 9 10 10 9 8 8 8 9 9 9 9 9 9 9 9 9 10 10 10 10 9 9 9 11 11 11 12 12 11 9 7 7 10 11 12 10 9 9 8 11 12 10
3 5 5 3 1 1 1 2 0 1 4 4 2 3 1 1 4 6 6 7 7 10 3 9 5 4 3 4 2 7 6 9 11 9 8 9 8 8 9 8 7 8 8 7 7 6 5 4 4 3 4 5 5 7 8 9 9 10 9 8 8 7 7 8 9 9 9 9 9 9 10 11 11 12 10 9 9 9 9 9 11 12 12 12 9 8 6 8 10 11 11 9 9 8 9 11 11
0 2 3 2 0 1 2 1 1 0 5 2 3 1 4 5 1 3 12 9 3 1 4 6 5 1 6 9 5 9 8 9 8 9 8 8 9 9 10 8 8 8 7 7 6 6 5 5 5 4 4 4 5 4 3 7 10 11 10 9 9 7 6 7 9 8 10 10 10 10 10 11 11 11 11 11 10 9 9 9 9 11 12 12 10 7 6 6 9 11 11 10 8 8 7 10 10
3 4 2 0 1 1 3 1 0 0 7 1 4 6 3 3 1 6 2 3 4 2 5 5 1 1 1 8 2 11 11 10 8 9 8 9 8 9 10 8 8 8 6 6 5 5 5 5 4 4 5 4 4 4 4 3 8 10 10 10 9 6 4 7 8 9 9 9 10 9 9 8 9 8 11 9 11 10 8 6 8 10 11 12 11 9 7 5 6 9 11 11 9 7 6 6 10
2 3 0 3 2 2 2 2 3 2 6 5 5 6 1 2 2 2 1 4 15 4 4 2 1 2 6 2 10 13 11 9 8 10 9 7 7 8 7 6 6 7 5 6 6 4 5 5 4 4 5 6 4 4 4 4 4 9 7 9 10 7 2 6 6 6 5 9 7 6 6 5 4 5 6 5 9 5 7 8 9 10 11 11 11 10 8 5 4 6 8 11 10 7 5 3 9
1 1 4 1 3 1 4 4 5 1 2 7 9 5 1 3 2 2 8 8 6 5 6 2 6 6 5 4 12 13 10 10 9 9 8 7 6 6 8 8 8 7 6 5 4 3 4 3 4 4 4 4 5 3 3 3 2 4 2 4 6 7 7 6 3 0 3 2 8 6 4 4 4 4 5 6 5 6 8 9 9 11 11 11 11 11 10 7 4 4 7 7 8 7 7 4 3
2 2 2 5 3 5 5 4 5 1 6 6 6 5 1 0 1 1 5 4 5 7 3 3 7 7 10 11 13 13 10 9 9 8 8 8 6 7 6 8 8 8 7 5 4 3 3 3 3 4 3 3 5 4 3 3 4 3 3 3 4 8 2 4 2 2 2 3 3 3 4 4 4 4 4 5 5 9 7 9 9 11 10 11 11 9 9 8 6 3 4 7 7 7 5 3 1
2 3 3 6 5 3 5 4 5 4 4 9 8 6 1 2 1 0 4 5 4 9 8 3 5 8 10 10 13 11 11 10 10 9 10 8 7 6 7 6 6 8 7 6 5 2 2 3 3 3 4 4 4 3 3 3 2 3 3 2 4 3 5 5 4 4 1 1 3 2 3 3 4 4 6 10 9 6 5 7 10 11 10 10 10 7 8 6 7 5 3 8 6 3 2 4 2
1 1 4 4 3 1 4 6 8 7 3 5 5 4 1 1 0 2 7 9 0 3 6 13 14 13 12 12 12 12 11 11 10 10 9 9 7 5 6 6 5 6 4 4 3 4 3 3 3 3 3 4 4 3 3 2 2 3 2 3 3 3 4 4 5 5 2 1 2 3 3 3 4 3 4 3 4 3 2 5 3 3 4 4 6 3 3 3 4 3 2 5 3 3 2 2 2
3 6 4 5 1 2 8 4 5 4 4 3 4 1 1 0 3 6 11 9 8 10 12 4 12 17 17 15 13 11 12 11 10 9 10 12 11 9 5 4 2 2 4 4 4 3 3 2 3 3 4 3 3 4 3 3 3 1 2 3 3 3 4 4 4 5 4 2 3 3 3 3 3 3 2 2 4 4 4 3 3 4 4 4 3 4 3 2 2 2 3 3 3 3 2 2 3
3 4 3 6 5 4 4 1 4 1 3 4 4 3 2 2 2 4 3 4 1 3 1 5 14 18 18 17 15 13 12 12 11 10 10 9 9 7 7 5 6 6 5 4 3 2 2 2 2 3 4 4 4 4 4 3 3 1 1 2 3 2 3 4 4 3 3 2 2 3 3 4 4 3 3 3 4 4 5 4 4 4 5 4 4 4 3 3 2 3 3 2 2 3 3 3 3
2 4 1 6 3 6 6 5 3 4 2 7 3 3 2 5 2 3 3 3 4 2 6 7 5 5 13 15 14 16 15 13 11 8 8 10 10 10 8 7 4 3 3 3 3 3 3 3 2 3 3 3 3 4 3 3 3 3 3 3 3 4 4 3 3 4 4 4 4 4 3 4 4 4 4 5 4 4 4 5 4 4 4 4 4 4 5 3 3 2 2 2 3 2 2 3 3
3 3 3 4 1 6 6 6 6 4 6 7 5 4 4 6 4 5 6 4 2 4 9 10 9 9 6 10 12 10 9 8 8 5 4 3 4 4 3 4 4 4 5 4 3 3 3 3 3 3 3 3 3 4 4 3 3 3 2 3 3 5 3 3 3 4 5 5 5 5 5 5 4 5 6 5 4 5 4 6 6 5 5 4 4 4 4 4 3 2 2 3 2 2 2 2 2
4 6 1 4 6 6 7 7 9 3 3 4 1 4 3 2 1 5 4 2 1 8 10 11 11 11 10 10 9 11 10 9 7 7 6 4 4 6 4 5 5 6 6 5 4 4 3 3 4 4 4 5 4 3 3 4 3 3 3 2 1 3 3 3 4 4 4 4 4 5 4 5 5 6 6 5 5 4 4 4 6 7 6 4 4 5 4 3 3 3 2 3 3 2 2 2 2
3 3 4 6 10 5 5 4 3 1 4 3 4 2 1 2 2 3 1 1 6 11 11 9 13 13 10 8 7 5 8 9 9 7 6 4 4 7 6 5 6 6 5 5 4 5 4 4 4 4 4 5 4 4 3 4 3 3 3 4 0 2 3 2 3 4 4 4 4 5 6 6 6 6 5 5 4 5 4 1 7 7 7 6 5 4 4 4 3 3 3 4 3 3 3 2 2
2 4 4 7 7 5 5 4 6 0 2 5 5 3 1 2 1 3 2 4 8 13 11 11 10 10 9 7 7 4 5 5 5 7 11 10 10 9 8 9 7 7 7 7 6 4 4 5 5 4 5 5 5 4 4 4 4 4 4 2 2 2 3 1 2 3 4 3 3 5 5 6 5 6 5 5 5 6 7 9 7 5 6 4 4 4 4 4 4 4 4 2 2 2 3 2 2
2 0 4 7 7 3 4 1 3 1 1 2 4 1 2 1 3 3 2 2 6 11 12 11 10 8 7 7 6 6 7 6 5 6 8 7 5 6 10 7 10 9 4 7 7 5 6 5 6 4 5 5 6 5 5 4 4 3 4 3 2 2 3 3 1 0 2 2 2 2 4 7 6 6 6 5 7 5 3 4 5 4 2 2 2 3 3 4 4 4 4 2 2 2 3 3 2
1 2 0 6 6 4 5 2 2 0 0 2 1 3 5 7 4 2 1 6 7 9 7 7 7 7 7 7 7 5 4 5 7 7 6 6 6 7 9 6 7 9 8 5 5 7 5 4 5 5 5 6 5 5 4 4 3 3 3 2 3 3 2 3 3 1 1 2 1 1 1 2 4 2 1 2 4 4 5 4 1 2 5 5 5 3 2 4 5 5 5 4 3 3 3 3 3
1 3 5 0 2 1 6 1 4 1 2 4 2 3 6 7 4 1 1 6 12 10 8 6 6 7 8 7 7 7 5 5 5 5 6 5 6 5 6 7 6 6 7 6 8 8 5 6 5 5 4 4 4 4 4 3 3 3 4 3 3 3 2 3 2 2 1 2 3 1 2 4 3 3 0 0 5 2 3 2 5 4 5 5 5 5 4 4 4 5 4 5 4 4 3 2 2
2 2 2 4 2 3 9 2 3 0 3 6 3 1 7 7 4 3 4 6 6 10 9 8 7 8 9 8 6 6 5 4 4 5 6 6 6 7 9 10 7 7 9 8 6 5 6 5 5 6 5 5 4 4 3 3 3 3 3 3 3 3 3 2 2 2 3 3 4 2 2 4 3 3 3 4 4 1 5 5 3 5 7 5 6 3 2 3 4 4 4 4 4 3 3 3 2
5 3 1 1 2 2 3 3 4 3 1 3 2 6 4 4 3 4 3 8 6 8 8 9 9 10 10 8 6 5 4 5 5 6 7 7 7 6 8 9 9 9 8 9 9 6 6 5 6 8 7 6 5 4 4 3 3 2 2 2 3 3 4 3 1 2 3 4 3 2 2 4 4 2 1 2 2 4 6 3 6 2 3 2 1 1 4 4 3 3 4 4 3 4 4 3 1
2 2 2 1 1 1 1 8 2 4 0 2 1 1 6 4 6 2 1 1 5 6 8 6 6 6 7 6 6 7 7 7 11 11 11 8 7 7 6 6 7 7 6 8 9 10 9 6 7 7 6 5 6 5 4 4 3 3 3 3 3 4 3 2 2 2 3 3 3 2 1 1 1 2 3 4 4 6 4 4 3 4 3 1 3 4 5 5 5 7 5 3 4 3 3 2 1
1 1 1 2 1 1 2 0 1 4 3 3 1 2 10 7 5 4 3 1 5 7 9 9 8 6 6 7 7 6 8 10 13 11 8 7 6 6 5 5 5 5 5 6 5 4 4 4 5 6 7 6 6 6 5 5 4 4 4 4 5 4 4 4 3 4 3 4 4 2 3 4 4 5 5 4 4 3 2 3 3 4 3 3 3 3 2 3 3 2 2 2 2 3 3 4 3
2 5 2 2 2 0 3 2 2 1 0 0 1 5 6 5 3 2 2 0 5 7 2 3 3 3 4 4 5 6 8 12 5 3 5 6 6 6 5 4 4 4 4 5 5 6 5 4 4 6 7 7 6 5 5 5 4 4 5 4 6 4 3 4 4 3 3 5 3 3 4 4 4 4 5 5 5 4 3 3 4 3 2 2 2 2 1 3 2 5 3 4 4 2 3 3 3
4 4 4 2 1 4 4 3 4 1 0 1 1 4 5 5 5 4 3 2 3 4 5 5 5 5 5 6 8 8 9 8 2 4 5 7 6 5 4 4 4 4 4 4 6 6 7 8 7 8 6 7 8 7 5 5 4 3 2 2 4 1 3 3 4 3 4 3 4 4 4 5 4 5 4 5 5 5 4 4 2 3 2 2 3 2 3 3 2 6 3 2 3 3 4 3 3
2 5 2 1 2 0 1 1 3 5 1 1 0 0 5 7 5 3 0 1 5 7 7 6 5 6 6 7 8 9 6 1 4 4 5 5 4 5 4 5 5 8 5 5 7 9 7 6 8 8 6 7 8 8 6 4 3 5 5 4 3 2 3 4 3 3 3 4 4 4 4 4 5 4 4 4 5 5 6 5 4 2 2 2 3 3 1 1 3 3 3 2 2 3 3 5 4
2 2 2 1 2 4 8 2 2 3 0 4 1 3 4 5 5 6 3 7 4 7 10 10 11 9 9 9 9 6 6 7 5 5 4 7 6 5 5 5 5 5 7 7 7 7 6 7 7 7 7 8 7 7 7 4 2 2 3 3 5 3 1 1 3 1 2 4 4 4 4 3 4 4 3 4 5 5 6 6 5 5 5 4 5 5 4 4 3 2 3 3 3 3 4 1 0
3 3 1 4 2 2 4 3 4 5 2 2 1 1 7 8 5 6 4 2 1 4 5 6 7 12 11 13 12 12 11 8 10 12 13 8 6 6 5 6 6 5 6 5 5 7 7 7 6 7 7 6 7 5 5 4 4 4 4 5 2 3 3 2 3 3 4 4 4 3 4 3 4 4 4 4 5 5 6 6 5 6 6 5 5 6 6 6 5 4 2 2 3 4 2 1 1
1 1 1 0 0 1 5 4 4 3 1 2 2 4 7 4 4 5 2 4 1 1 2 3 4 5 5 2 4 10 13 13 12 9 6 8 9 12 11 7 7 8 8 9 9 9 6 8 7 7 7 7 6 5 6 6 6 5 5 4 4 5 4 4 4 3 3 1 2 4 3 3 3 4 3 4 4 5 5 5 6 5 6 5 5 6 6 6 6 6 6 6 5 2 3 2 1
3 4 5 4 2 1 2 2 4 7 2 4 3 3 3 5 6 7 6 6 5 1 2 3 5 5 4 6 10 8 9 9 13 14 16 18 16 8 5 8 9 8 10 10 6 6 7 8 7 6 5 6 7 5 6 7 6 7 6 5 4 3 4 4 5 5 2 3 3 0 2 4 3 3 4 3 4 4 6 6 6 6 6 6 6 6 5 7 8 8 6 5 6 5 4 5 4
1 5 6 4 3 2 1 1 2 1 1 2 1 4 4 6 3 3 3 5 7 7 2 6 4 5 5 9 10 9 11 10 7 7 6 7 7 8 9 10 12 12 9 5 6 7 7 7 8 8 8 7 6 5 5 6 6 6 7 7 7 8 8 4 2 3 5 3 2 3 2 3 3 4 3 3 4 5 6 6 7 6 6 6 5 6 7 7 6 6 5 7 6 5 5 6 5
2 2 6 6 5 2 2 2 4 3 2 2 4 3 2 3 5 3 5 5 7 8 9 7 6 5 8 6 6 7 11 13 14 15 14 14 14 15 16 17 14 14 7 7 7 7 8 9 9 9 7 7 6 6 6 6 8 6 5 5 4 6 6 7 5 4 3 4 4 3 3 2 3 3 4 4 4 5 6 6 6 7 7 6 6 6 6 5 5 6 6 6 6 6 6 5 5
3 3 7 5 3 3 4 3 2 0 0 6 5 1 0 2 7 3 4 4 6 7 7 8 8 8 1 6 9 10 12 14 14 13 13 13 15 15 16 14 12 7 9 11 11 9 7 7 7 6 7 7 7 7 7 6 6 8 7 6 4 4 2 2 3 3 5 3 5 2 3 2 4 3 3 4 4 5 5 6 6 7 7 6 5 6 6 6 7 7 7 8 7 7 6 5 5
2 5 6 6 7 6 3 4 4 1 2 4 3 0 2 6 5 7 2 0 4 6 7 8 6 7 11 11 8 10 11 10 11 14 15 15 16 17 16 9 6 8 7 6 5 5 6 6 6 7 8 8 7 7 7 7 5 6 6 6 6 5 2 2 3 4 4 3 5 3 3 3 4 4 4 4 5 5 6 6 7 7 6 6 5 6 6 7 6 7 7 7 6 7 6 6 6
4 4 5 5 8 4 3 6 3 4 0 6 7 2 2 3 4 6 0 1 1 5 6 5 6 7 9 9 10 9 9 11 12 13 13 14 11 7 5 8 8 6 7 7 7 7 6 8 8 10 10 7 7 8 8 8 6 6 7 7 7 6 4 4 4 3 3 3 5 4 4 3 3 5 4 4 4 4 5 5 6 6 5 5 6 6 6 6 6 6 6 7 7 7 6 6 6
2 1 2 3 1 6 2 4 5 2 3 6 3 1 2 3 4 5 6 5 4 4 5 8 8 9 8 5 6 7 7 8 10 9 8 5 6 7 8 7 9 9 8 9 8 8 9 9 9 10 8 8 7 7 7 7 7 7 6 8 8 7 7 6 7 7 6 6 5 5 3 3 4 4 4 5 3 4 5 5 5 5 6 6 6 6 5 5 5 6 6 6 6 5 5 6 5
5 4 5 2 3 4 1 2 1 3 5 0 1 2 1 4 4 3 8 6 5 2 3 5 5 8 7 4 5 5 3 4 7 9 5 5 8 9 11 9 8 10 13 13 13 12 10 8 10 12 11 9 9 7 8 8 7 8 8 8 7 7 7 7 7 6 6 7 6 5 5 5 4 5 4 5 4 4 5 6 5 6 5 5 5 6 5 6 6 6 6 6 6 6 5 6 6
5 3 3 3 0 1 2 3 1 4 5 4 1 1 1 4 4 1 4 7 4 3 3 3 4 5 4 6 5 5 4 2 3 3 6 8 7 4 5 10 13 12 11 12 12 12 11 10 10 12 12 9 7 7 8 8 9 9 8 8 7 7 7 7 6 7 7 6 7 7 7 7 6 6 6 6 6 5 3 5 5 5 5 5 5 6 6 5 6 6 6 6 6 4 5 6 5
7 4 8 7 6 5 2 3 4 6 4 1 2 2 4 2 2 5 4 5 4 4 4 4 4 6 2 6 8 7 5 4 2 2 4 4 6 6 6 5 4 4 8 10 10 12 10 11 11 12 10 9 9 10 8 9 9 8 8 7 7 7 8 7 7 6 7 7 5 6 6 5 7 6 7 5 5 5 5 5 5 6 5 5 5 6 6 6 6 6 5 5 4 4 5 5 4
0 2 5 5 6 6 4 4 3 1 1 1 1 3 2 3 2 4 3 3 3 3 3 1 2 5 6 12 12 9 7 6 5 3 1 3 4 4 3 3 4 3 4 4 4 5 9 11 11 12 14 12 10 9 9 10 9 8 7 8 9 8 7 6 5 4 5 6 7 7 7 7 7 6 5 5 4 6 6 5 5 6 5 5 6 6 6 6 6 6 5 5 5 3 5 6 4
2 4 4 4 3 9 6 2 2 3 4 4 1 5 2 6 2 0 2 3 2 2 2 4 6 5 8 9 8 8 8 8 8 5 3 2 1 3 5 6 5 4 3 4 5 5 4 1 3 5 5 5 7 9 10 9 8 7 8 8 8 8 8 9 9 8 8 6 6 6 7 7 5 6 7 5 6 5 6 6 6 5 5 5 6 6 6 6 6 5 5 5 5 4 4 5 4
7 1 5 2 2 5 4 3 2 3 3 5 1 5 1 2 2 2 1 1 1 3 3 3 5 6 10 6 7 7 7 7 7 8 6 4 1 2 4 5 6 7 6 6 5 4 3 2 4 6 6 8 8 7 7 7 9 8 7 8 8 9 10 9 8 8 7 7 5 5 3 5 6 6 7 6 7 7 6 6 7 6 5 5 6 5 6 6 6 6 5 6 4 4 4 4 4
3 2 3 1 2 1 3 4 1 1 1 2 1 1 3 4 3 0 3 2 1 3 3 3 7 7 6 5 6 6 6 7 9 9 10 9 7 4 1 4 4 5 7 7 7 7 6 6 5 6 8 6 5 6 6 6 4 3 3 6 7 7 7 7 6 6 6 7 8 7 7 6 4 3 5 5 6 6 7 6 7 6 5 6 5 6 5 6 6 6 5 5 4 5 5 5 4
1 1 2 1 3 2 3 4 3 4 2 2 4 2 4 5 3 3 4 1 1 2 3 5 4 5 5 5 6 6 7 7 7 8 8 8 9 8 7 2 2 5 6 6 7 7 9 9 8 7 5 5 5 5 5 6 5 5 5 3 4 5 6 6 6 7 8 8 8 8 7 5 7 5 5 5 6 6 6 7 6 7 6 6 7 5 6 6 6 6 5 5 4 5 5 4 3
1 2 2 1 2 1 4 1 1 3 4 4 2 2 3 3 4 3 5 4 2 1 2 3 4 5 5 5 5 6 6 6 6 6 7 7 8 9 10 9 6 3 1 2 4 8 8 6 8 9 11 10 9 8 7 7 7 9 10 11 9 8 8 6 5 7 8 8 7 7 8 7 6 6 6 6 6 7 6 7 7 6 7 6 7 6 5 6 6 6 5 5 4 4 3 2 1
1 3 3 6 5 2 1 5 2 1 3 3 4 5 6 7 3 3 3 3 1 1 1 3 4 4 4 5 6 5 6 6 5 4 5 6 6 7 9 11 9 9 7 6 3 1 1 5 7 8 7 8 10 10 10 9 9 10 10 7 5 6 7 6 7 7 8 7 7 8 7 7 8 7 8 8 7 6 6 6 6 6 6 6 6 6 5 6 6 5 4 3 3 3 2 2 1
Wind_Direction
272 301 293 282 33 158 71 359 168 309 72 258 318 322 259 293 254 342 283 323 167 314 308 33 61 89 154 194 147 132 203 149 226 143 212 242 21 118 105 105 109 108 115 130 129 136 148 154 155 151 145 142 142 140 137 135 132 132 130 127 124 123 118 114 114 113 112 114 117 118 120 120 118 117 116 116 115 117 119 120 121 121 120 118 120 121 120 121 122 123 123 124 123 123 124 124 122
288 293 300 201 194 65 225 127 97 339 38 23 249 120 256 286 28 215 238 141 194 142 135 103 84 84 71 109 132 131 34 27 226 189 345 288 102 84 94 108 113 116 120 129 128 124 143 155 157 155 151 146 145 145 141 139 136 135 133 128 125 126 123 120 118 116 116 116 117 119 119 121 121 120 120 119 119 115 116 117 121 123 125 124 122 123 122 121 122 123 124 125 124 124 124 124 121
357 11 353 42 32 80 96 33 264 89 129 247 272 210 326 323 225 266 229 177 164 147 136 110 107 72 30 81 44 50 213 308 79 69 80 132 117 115 99 106 107 109 117 113 116 127 140 156 157 159 156 150 147 149 144 142 140 138 135 132 130 128 124 124 123 123 122 122 122 124 125 126 126 127 125 121 112 111 117 117 117 115 117 126 124 124 122 120 122 124 124 123 124 124 124 124 120
78 84 167 73 223 29 73 27 82 133 137 206 300 276 227 238 286 251 227 178 152 303 320 31 53 273 115 74 130 95 55 64 20 120 129 167 87 120 117 115 107 99 97 103 126 133 132 164 154 159 155 152 152 151 146 144 142 138 136 135 134 130 127 128 129 128 128 129 127 126 126 127 129 130 130 120 101 96 100 115 117 122 128 123 117 120 121 122 123 124 124 125 124 122 123 119 117
41 305 105 99 112 317 108 172 142 111 169 210 122 280 294 304 348 42 101 127 241 339 27 116 79 343 96 117 112 113 185 102 114 96 114 70 117 121 119 115 112 115 113 115 121 133 143 161 156 156 160 156 158 155 147 141 137 135 136 137 136 132 132 130 130 130 132 131 130 127 128 129 131 130 125 125 118 117 100 97 107 112 112 121 117 118 122 125 126 126 126 127 125 122 119 115 112
59 42 356 100 280 182 55 54 213 180 223 156 121 348 301 134 42 342 23 304 305 41 53 51 154 175 24 3 170 109 144 138 164 90 137 136 127 123 119 116 116 117 113 104 116 107 106 150 145 152 163 162 162 159 150 141 136 134 137 139 139 137 133 130 132 131 132 134 133 132 130 131 131 133 128 131 132 129 132 115 103 99 115 121 122 122 126 125 129 130 129 127 124 122 119 114 110
267 44 356 28 23 56 178 164 209 183 271 176 218 215 350 349 119 55 342 0 343 32 27 107 122 108 75 326 47 60 298 157 147 147 118 128 123 119 117 113 109 109 113 111 106 102 111 121 124 143 162 168 165 161 156 145 138 138 140 141 139 136 133 132 133 135 135 136 137 135 133 133 133 131 134 141 138 142 136 120 116 116 124 127 126 125 124 127 130 131 130 125 120 120 115 103 94
62 135 295 105 246 34 238 217 235 157 269 176 236 275 260 1 303 48 272 73 318 38 333 75 325 91 122 7 132 297 12 20 107 98 112 121 124 121 117 115 106 110 109 104 110 114 120 117 121 132 160 172 171 165 156 152 144 141 141 138 135 135 134 134 136 136 138 138 140 137 136 135 138 138 142 139 145 144 130 129 126 127 132 139 131 125 122 128 128 129 128 126 122 115 111 108 99
341 86 278 78 194 42 29 247 255 226 286 280 237 234 252 240 215 197 198 197 20 56 122 242 320 88 219 37 26 318 21 63 95 115 117 124 120 118 110 108 111 111 110 109 97 93 103 112 117 137 160 171 168 160 154 154 149 144 141 137 138 137 136 138 137 138 141 142 141 140 137 137 140 144 142 140 136 133 130 132 130 130 135 142 137 126 123 129 131 129 130 125 121 116 115 111 102
30 87 260 143 123 245 350 291 100 235 215 246 256 238 228 246 230 187 201 255 179 122 191 20 23 114 123 101 89 342 103 114 111 107 115 117 113 102 98 102 110 114 109 106 106 111 114 121 113 132 147 162 159 157 150 158 155 145 146 143 144 143 141 142 141 142 144 143 143 143 140 139 140 142 143 144 139 135 130 128 130 133 137 146 143 130 125 127 128 126 126 125 124 123 119 112 103
38 10 137 80 23 245 244 278 265 313 263 295 295 238 238 241 226 218 205 196 177 141 299 55 38 121 99 79 244 271 145 134 131 131 124 113 105 102 99 100 102 106 108 111 107 86 96 117 130 130 138 142 139 144 144 149 149 151 146 143 145 146 144 144 146 145 144 143 145 142 139 139 142 139 141 141 142 133 131 127 128 131 135 142 146 134 128 121 121 123 123 122 121 121 117 112 107
33 39 16 110 192 169 240 203 293 280 283 304 278 297 218 183 180 217 209 169 184 135 165 133 180 149 80 134 237 151 145 145 133 132 118 112 103 105 104 102 103 103 104 105 92 81 71 76 103 129 120 118 124 132 138 144 148 147 146 144 146 147 147 150 149 146 143 142 146 142 139 140 139 135 137 139 135 131 134 133 132 134 140 143 149 146 135 127 122 118 115 118 118 119 119 115 111
118 106 85 99 229 129 206 45 261 283 325 277 223 271 45 137 177 204 195 180 166 130 201 187 165 136 109 165 195 137 148 148 144 141 129 123 122 107 99 98 101 102 106 101 89 82 75 66 73 96 131 132 124 126 133 138 143 148 149 147 150 147 151 152 147 148 144 143 144 141 140 139 136 137 138 144 137 134 139 134 137 139 141 146 154 156 153 135 129 127 125 122 120 121 121 119 114
116 180 125 217 75 153 144 250 267 348 295 245 256 276 310 222 239 202 139 137 178 166 198 145 145 140 67 114 162 162 162 152 149 134 130 131 122 119 116 110 109 112 108 96 92 88 83 77 75 71 98 113 125 130 130 133 135 146 152 159 152 150 153 156 151 148 144 140 141 142 143 142 143 145 150 146 143 140 141 139 141 142 143 148 156 164 167 144 139 133 131 127 123 123 127 122 118
333 147 83 125 62 41 249 136 209 142 264 243 256 310 302 251 189 159 160 152 196 198 113 90 172 168 206 170 203 184 160 156 138 124 124 124 126 124 126 122 116 116 100 88 88 93 92 91 83 79 88 89 95 100 103 144 142 149 156 159 164 158 155 159 157 149 150 145 147 149 147 148 148 149 153 148 142 142 145 143 140 144 144 149 156 167 172 162 144 139 133 129 128 133 137 128 123
147 80 84 93 266 154 274 199 235 73 263 211 278 332 231 322 224 148 240 153 134 124 117 165 135 205 191 177 181 158 144 141 127 120 121 123 120 121 128 125 123 117 103 96 97 101 114 111 92 96 97 81 86 97 110 119 152 153 160 158 159 162 150 151 155 157 150 147 152 149 149 148 150 157 157 151 153 147 145 142 147 146 150 153 158 165 175 177 156 145 137 132 134 141 144 140 124
72 82 2 31 270 151 262 195 154 248 262 280 299 9 51 351 316 46 68 108 124 151 67 27 273 330 163 199 138 130 129 126 121 124 122 120 120 125 123 120 120 116 110 120 127 129 132 129 107 99 123 125 105 93 105 117 161 159 158 159 143 148 159 173 153 162 159 144 148 149 137 125 129 141 156 148 159 149 150 154 158 156 154 157 162 164 170 181 185 148 139 140 138 138 136 124 124
66 105 113 268 201 133 214 201 192 223 269 297 337 342 32 72 3 124 79 49 81 77 67 1 33 44 93 109 113 118 122 126 128 128 130 130 128 130 137 137 138 143 126 128 133 132 132 124 119 113 112 114 110 95 95 112 105 128 122 144 142 169 177 135 133 351 141 130 151 155 138 127 127 128 143 160 151 166 169 165 169 165 162 163 168 167 164 176 198 179 139 133 130 132 101 51 21
112 114 102 221 192 237 169 210 237 339 278 289 292 321 199 173 117 296 98 129 115 81 24 57 68 65 83 102 117 124 129 124 131 129 132 135 140 136 136 139 146 142 143 139 154 161 153 138 134 122 99 107 110 109 78 105 93 102 89 108 143 143 239 117 112 103 15 136 131 147 128 135 136 137 143 159 159 176 174 174 170 182 169 173 172 168 167 171 184 192 141 114 110 108 98 83 49
228 123 244 248 210 244 220 230 260 202 290 297 309 316 156 143 60 292 129 142 95 132 129 35 116 134 130 128 129 130 135 133 140 147 147 145 133 132 134 141 140 154 155 158 159 172 161 155 147 131 126 103 100 93 77 76 82 100 98 74 107 98 139 130 129 126 47 63 120 141 127 128 121 136 170 175 176 168 182 177 180 183 176 181 168 165 165 175 173 181 175 105 94 71 76 100 81
272 97 207 232 217 252 266 203 247 269 232 275 291 295 102 26 174 103 152 106 275 262 223 166 170 158 147 142 140 141 141 148 154 158 150 139 135 131 146 148 153 157 155 128 144 182 186 169 146 130 121 116 115 113 100 84 68 75 96 111 109 109 117 121 117 163 138 22 168 126 125 125 126 134 155 146 139 148 160 167 174 183 149 178 153 113 141 194 159 155 105 99 106 99 63 78 93
105 208 208 215 137 259 257 231 233 249 262 250 319 4 188 176 64 145 160 142 201 204 211 235 160 151 149 151 154 148 154 157 162 160 156 155 156 153 144 123 90 91 140 158 176 176 203 182 156 137 124 116 111 120 135 153 121 68 102 114 94 82 112 120 128 114 156 206 139 124 94 89 109 127 151 122 143 150 164 169 161 152 145 145 128 130 121 109 136 142 141 139 132 122 119 87 86
232 305 246 230 220 240 272 170 199 182 338 312 309 286 88 83 139 204 252 197 231 306 99 153 167 162 160 150 148 155 159 167 168 167 159 150 150 156 160 163 155 157 164 174 169 189 185 174 149 122 122 122 116 127 144 106 100 78 84 114 105 50 86 112 113 130 129 155 148 128 130 131 139 151 187 175 175 161 170 173 175 170 151 146 139 145 150 156 185 192 180 167 155 150 135 125 113
156 246 306 297 195 227 259 274 228 289 270 269 220 332 252 124 155 194 218 235 285 314 104 121 122 125 140 151 165 162 166 166 167 164 162 159 161 164 164 160 159 134 131 158 168 184 172 176 162 132 120 115 118 119 116 109 111 127 185 158 117 160 139 131 129 145 185 186 187 167 148 134 154 177 192 198 190 171 185 182 180 169 155 155 148 155 164 165 191 221 204 185 206 178 155 138 132
195 269 246 266 198 236 259 258 270 233 246 264 315 309 241 182 179 126 236 294 332 85 104 116 130 133 139 143 152 154 158 160 151 140 114 102 119 111 98 107 126 135 144 169 171 158 192 165 143 136 129 118 118 125 117 118 123 117 99 117 151 166 135 144 147 145 173 176 170 166 155 152 179 196 195 198 186 187 189 187 193 190 186 165 148 158 171 173 196 206 208 226 212 153 144 143 142
204 226 288 277 270 274 264 289 266 208 248 202 178 263 304 238 270 179 229 307 134 115 107 122 133 144 156 160 159 160 162 160 141 139 153 126 124 120 128 146 152 154 171 164 157 178 178 152 155 158 145 136 138 121 135 127 138 133 111 69 270 137 142 142 145 157 163 164 167 174 176 168 195 194 199 197 186 191 185 221 201 198 191 168 161 162 170 159 180 208 208 250 235 198 188 189 154
164 219 224 258 271 302 293 221 300 158 214 158 188 249 130 331 89 255 320 208 129 112 121 133 145 157 159 159 156 163 158 165 160 143 114 126 142 153 167 159 163 163 150 158 168 178 174 153 167 148 140 143 137 135 143 138 142 133 142 181 194 110 136 146 147 152 163 170 176 172 180 192 196 205 196 192 194 189 151 303 230 195 199 181 170 158 144 158 158 200 215 222 217 213 223 178 174
236 245 316 293 301 244 250 314 292 130 283 165 171 209 261 316 80 227 241 171 139 125 134 143 150 156 158 155 159 156 165 168 156 150 159 162 176 172 168 166 163 158 158 169 174 169 158 171 160 153 144 144 141 142 142 144 149 149 150 209 163 128 146 143 150 153 167 178 171 173 185 200 204 206 199 189 173 195 174 191 229 200 200 168 164 144 146 154 175 207 214 240 265 252 256 226 192
272 70 305 303 349 360 10 291 326 123 273 117 158 79 351 335 189 318 257 143 136 132 141 149 152 151 153 162 159 166 179 178 168 177 179 182 168 168 167 176 157 158 178 160 164 160 168 166 155 158 148 146 147 153 156 158 146 130 139 158 157 134 121 144 57 71 120 156 170 182 192 205 212 212 202 179 175 199 194 165 202 181 64 58 99 121 145 157 169 194 228 217 230 281 292 286 302
359 46 45 328 356 7 348 311 6 131 276 97 229 257 270 262 257 284 86 119 108 110 128 144 149 153 163 172 175 168 173 175 189 190 180 181 177 177 164 175 166 155 159 161 150 166 168 161 154 152 154 150 155 148 146 142 140 133 134 127 118 83 75 95 126 258 121 117 97 108 201 266 243 250 247 161 205 197 199 210 245 96 99 57 24 21 184 182 180 188 203 179 205 200 243 282 300
308 276 66 69 7 293 298 38 298 114 355 35 72 225 283 269 288 269 166 144 142 145 150 152 151 162 173 183 181 180 195 197 187 186 188 186 179 177 164 162 173 158 145 158 168 168 159 164 158 146 144 140 135 138 130 130 128 121 119 103 100 119 100 101 70 79 37 74 332 7 315 290 317 293 321 294 261 216 190 157 45 47 76 133 165 192 205 205 174 186 181 181 175 175 186 245 242
11 50 302 327 79 284 304 352 4 310 330 53 73 16 242 267 263 242 177 141 151 147 156 159 162 171 184 186 182 183 193 186 192 208 195 189 183 177 173 172 173 171 162 162 159 153 165 165 148 140 142 141 138 125 104 95 97 103 124 126 117 116 116 112 125 107 103 130 222 184 218 252 248 234 173 237 246 322 49 56 107 176 169 158 198 204 171 209 194 186 195 179 173 198 217 242 205
356 61 257 337 11 298 1 5 5 353 271 339 152 229 322 326 293 246 204 153 158 151 166 171 174 181 184 187 185 178 165 191 200 208 200 191 197 184 180 174 178 175 162 158 158 165 160 163 150 142 148 142 119 92 87 76 74 83 88 104 116 106 118 131 111 82 89 109 130 84 188 225 235 253 17 122 64 54 76 135 206 111 83 138 82 143 228 229 179 228 208 199 170 180 207 206 180
323 17 99 228 70 345 47 307 31 346 100 270 23 206 246 257 318 322 314 143 143 162 181 179 175 182 190 184 181 180 187 186 200 202 200 190 192 190 190 184 173 171 174 162 163 162 164 163 154 146 137 131 124 120 108 101 87 76 68 77 80 72 72 74 51 49 44 49 73 74 96 138 73 44 36 32 62 81 141 169 138 124 96 82 174 203 214 204 188 189 209 190 199 186 185 127 222
237 322 22 343 311 212 269 38 291 37 1 217 296 262 274 279 330 337 300 162 174 192 185 184 180 181 185 189 191 192 193 200 209 203 182 185 188 189 183 178 173 169 172 162 146 126 127 145 143 136 128 122 113 111 104 92 90 79 63 69 70 60 66 63 57 54 35 59 51 30 47 51 59 55 51 60 55 108 128 67 79 78 83 105 165 231 251 221 177 130 80 27 16 217 184 184 148
188 168 167 144 65 301 306 247 273 38 14 7 266 232 275 319 306 305 344 28 191 213 118 119 151 174 192 203 209 201 205 217 214 149 162 183 192 180 180 167 169 169 163 153 139 135 136 138 132 122 127 124 116 109 109 100 84 84 91 73 64 51 55 72 49 53 32 53 46 51 50 56 60 66 68 76 81 85 82 73 74 74 76 209 152 211 270 351 73 94 170 190 199 181 150 155 143
90 97 102 188 177 286 280 278 262 322 78 212 241 254 267 273 248 246 259 324 239 244 203 186 183 188 192 196 204 209 216 219 179 173 168 185 192 177 162 155 160 152 161 156 148 156 159 158 149 146 145 137 132 133 133 134 115 78 42 63 113 94 107 78 56 29 48 42 46 45 47 44 52 59 65 77 84 84 72 64 61 43 42 36 45 32 51 62 93 170 165 173 121 87 69 66 49
143 125 121 183 199 265 231 259 353 326 138 282 311 310 283 260 273 239 227 41 229 226 224 209 199 193 198 204 206 210 212 154 153 153 175 182 192 180 165 163 161 163 191 170 171 172 167 159 160 154 147 146 148 151 153 148 156 167 158 179 147 130 104 102 81 39 43 48 49 44 39 51 56 58 58 66 76 83 77 64 55 47 53 60 54 36 22 126 117 123 151 100 68 96 80 52 17
48 194 176 10 286 240 286 272 328 332 75 266 4 11 284 277 279 297 184 176 233 220 199 203 194 194 193 199 206 202 194 204 184 192 182 195 192 192 183 182 190 192 174 180 183 162 166 166 169 159 159 151 158 152 144 156 136 126 131 172 145 116 71 152 128 92 70 76 56 41 36 39 71 61 59 68 78 72 78 76 59 51 54 77 87 69 60 45 37 46 71 103 87 58 81 51 30
115 96 60 240 244 30 304 297 345 345 75 315 35 0 292 311 301 277 273 220 193 246 231 225 196 191 197 199 192 193 202 192 194 192 195 188 191 194 191 191 185 182 176 188 188 178 177 172 167 168 163 155 155 163 143 101 107 102 81 109 79 104 132 120 82 55 51 52 37 28 43 29 61 68 63 72 74 68 78 82 72 63 59 54 75 74 60 56 33 33 30 107 108 97 108 104 11
333 147 157 106 296 239 171 264 316 304 11 72 46 18 327 344 348 328 321 324 68 80 310 294 279 248 226 207 181 196 196 196 199 195 180 182 191 202 197 182 177 189 190 192 186 182 177 176 177 175 166 161 156 158 129 124 103 77 85 67 74 70 56 54 80 48 37 61 60 52 21 23 45 60 46 67 82 79 73 76 73 68 68 53 55 58 54 53 58 37 35 50 51 63 95 115 103
322 240 188 205 177 201 270 339 38 21 339 358 66 335 310 300 295 253 288 350 342 309 30 219 243 239 224 198 209 205 214 206 197 193 191 191 196 182 172 185 192 197 198 199 179 174 173 176 170 178 167 153 157 158 144 138 139 135 132 127 133 118 133 137 161 165 155 135 155 216 45 33 45 58 43 52 75 84 75 72 72 67 61 59 61 61 44 43 41 50 39 58 56 42 87 72 72
95 270 191 176 146 118 104 13 71 1 214 295 20 180 265 325 323 299 333 339 308 316 297 273 188 235 210 221 213 203 205 207 217 213 202 189 186 176 191 195 200 201 200 162 173 182 183 177 175 178 175 165 158 155 157 141 136 152 168 174 171 169 167 220 184 174 151 178 143 114 61 45 48 75 53 61 72 77 80 70 72 71 65 61 59 62 52 45 40 38 39 52 45 34 48 77 49
240 236 127 118 107 125 198 146 154 207 249 303 36 96 172 305 293 293 335 346 317 319 305 300 289 188 222 236 235 218 210 205 201 202 197 193 185 186 189 203 198 201 168 170 175 188 183 179 176 180 178 169 161 154 165 165 157 171 174 180 184 171 172 191 181 165 147 133 122 118 85 47 64 76 86 72 73 80 83 76 77 74 71 65 66 63 63 50 54 41 41 44 44 42 48 68 66
218 179 133 153 157 185 135 124 149 225 20 279 329 338 309 263 267 318 6 6 323 308 292 290 302 324 247 226 233 225 221 214 206 201 197 188 188 196 202 201 198 158 170 179 188 187 179 180 176 170 178 170 162 160 167 185 170 172 176 171 191 220 199 165 125 116 133 124 116 98 95 63 69 59 71 93 77 81 84 91 84 82 81 75 75 73 62 55 54 52 46 44 44 38 37 43 59
276 141 83 81 70 65 101 101 102 357 80 272 269 246 211 289 277 319 326 286 290 275 292 298 312 309 311 302 269 232 222 220 214 210 199 196 195 197 200 189 159 180 162 163 172 171 178 173 174 177 190 183 165 165 173 185 181 158 163 179 185 201 159 82 106 114 124 128 136 140 113 88 81 67 55 76 83 81 89 90 89 92 94 89 81 81 76 66 59 59 55 58 53 55 36 44 55
112 88 67 23 42 38 25 64 92 66 38 258 237 275 151 274 266 235 45 187 244 310 305 312 322 324 303 286 269 258 225 210 208 208 205 203 200 187 145 174 171 141 161 163 176 183 179 182 182 188 195 181 167 171 174 187 181 165 175 179 183 182 180 156 131 121 116 119 145 161 143 127 97 102 94 70 88 102 94 95 98 97 93 95 94 85 76 76 68 69 64 60 56 59 47 52 50
123 58 119 58 344 11 39 346 37 90 276 258 293 191 105 182 301 341 245 286 274 242 276 302 317 309 298 284 293 273 234 212 204 204 211 172 143 161 166 168 167 166 154 170 180 183 191 189 186 189 197 189 179 173 176 186 182 180 180 176 181 185 174 178 174 174 178 171 167 163 157 119 106 101 98 108 95 95 101 95 97 95 92 89 86 90 92 88 85 77 69 69 67 61 58 59 56
76 74 46 115 265 42 321 3 260 201 199 278 61 144 51 241 217 271 302 299 307 268 225 261 288 306 297 339 339 320 275 210 202 193 156 167 189 172 179 178 151 171 181 179 182 189 192 189 186 189 198 193 188 174 180 184 185 189 181 181 186 177 185 184 182 180 181 174 167 146 148 161 145 123 137 130 150 141 125 122 122 115 108 104 108 95 88 82 80 75 72 69 64 59 61 66 60
112 151 138 85 77 45 248 284 219 308 295 272 314 319 251 246 296 251 280 295 282 308 303 292 281 285 321 23 20 22 357 291 228 191 171 174 184 201 205 184 184 184 182 180 182 186 193 191 189 195 200 192 186 178 182 182 196 194 185 179 180 176 188 187 189 184 188 181 168 169 172 173 172 173 162 170 172 162 148 141 129 117 114 118 112 106 101 96 90 84 82 79 75 72 70 72 72
204 136 148 185 147 161 234 196 208 218 203 308 290 84 232 115 228 330 297 278 321 342 318 292 289 274 340 58 49 35 28 12 333 214 183 176 168 167 182 201 216 206 190 184 184 191 189 192 192 195 196 197 189 190 182 189 195 197 190 181 176 182 185 186 194 192 180 176 181 173 179 167 171 179 170 175 156 148 141 124 123 115 111 106 102 95 91 86 83 75 73 77 75 77 75 75 68
86 157 87 90 230 145 219 204 155 206 175 19 206 209 190 142 318 292 315 320 336 327 351 318 323 333 24 48 41 31 32 35 32 3 311 157 155 142 138 163 183 171 190 215 212 203 202 203 197 195 196 193 192 189 194 192 195 193 189 184 187 184 188 182 181 194 197 187 178 179 182 182 185 163 158 147 168 148 145 131 118 120 126 121 109 109 105 95 89 83 66 62 52 31 59 55 49
249 106 179 210 159 107 84 95 28 104 49 262 161 326 309 298 22 303 334 314 309 341 16 45 29 360 37 40 34 28 27 37 35 32 6 309 221 157 155 153 158 162 167 188 189 192 211 254 256 235 222 207 200 200 197 194 191 185 200 196 184 184 185 184 188 192 189 192 183 187 179 191 172 162 161 162 157 154 147 139 127 123 111 108 98 100 103 100 95 90 85 77 67 27 52 48 39
94 192 235 151 119 121 130 212 347 56 179 253 44 211 186 98 217 284 324 316 10 357 12 28 27 29 51 28 29 22 18 16 30 41 39 29 337 220 176 170 168 168 167 163 178 174 161 180 201 207 209 211 209 207 205 201 196 198 200 201 197 193 192 196 189 185 180 177 188 185 166 154 191 184 165 166 155 152 151 140 128 121 117 104 109 106 98 90 82 70 62 68 82 79 56 39 29
150 201 191 115 268 236 323 89 225 190 253 270 312 275 270 180 234 147 241 198 83 353 334 25 36 32 35 32 35 34 20 18 33 34 28 21 21 15 215 180 169 162 163 165 166 165 161 169 183 197 216 222 212 206 214 217 204 225 238 220 207 205 207 200 194 177 172 184 188 184 182 188 174 170 156 153 152 149 145 140 132 129 124 121 113 101 99 91 91 83 69 72 52 59 59 36 5
45 54 28 352 100 161 127 193 172 125 239 71 292 53 231 222 217 223 138 219 257 310 356 22 7 8 8 11 14 33 44 35 34 41 35 28 21 24 29 9 211 169 165 167 164 168 175 176 178 190 192 202 205 203 207 209 179 171 229 272 257 236 219 204 193 178 184 197 195 182 177 167 185 174 174 161 156 153 149 140 142 139 140 135 115 107 110 113 100 99 107 88 91 91 76 53 1
334 30 331 7 32 209 101 28 116 175 174 175 185 319 282 273 214 162 168 211 224 245 2 351 351 348 353 8 14 9 23 37 34 38 45 38 28 31 36 42 25 17 45 141 165 177 179 175 181 183 185 194 198 196 192 196 184 205 194 207 207 208 214 211 199 193 194 199 190 184 183 178 153 178 162 162 160 158 152 147 148 154 145 134 121 127 135 118 101 105 107 114 116 103 82 89 70
177 166 206 167 130 170 171 264 18 78 107 206 133 232 268 268 170 223 212 218 220 314 295 329 336 347 353 360 12 11 18 9 11 24 44 49 41 34 38 45 45 51 34 25 16 41 182 197 194 189 194 194 195 198 195 189 195 203 224 244 221 200 203 198 202 202 203 197 191 188 178 159 176 174 167 164 159 153 149 148 145 139 123 120 124 128 130 102 103 100 94 114 103 95 95 82 104